www.pogodaiklimat.ru

Погода и климат >> Архив погоды >> Антарктида >> Neumayer


ПОГОДА в Neumayer

  • Прогноз погоды в Neumayer
  • Монитор погоды в Neumayer
  • Климат города

АРХИВ ПОГОДЫ в Neumayer

Время (UTC), дата Ветер
(напр.,м/с)
 
Видим.   Явления Облачность Т
(С)
Тd
(С)
f
(%)
Тe
(С)
Тes
(С)
Комфортность P
(гПа)
Po
(гПа)
Тmin
(С)
Tmax
(С)
R
(мм)
R24
(мм)
S
(см)
03 19.05 ЮЗ 6 н/о н/о -29.2 -32.8 71 -42 -42 опасность
обморожения
981.0 975.6
06 19.05 Ю 6 н/о н/о -27.5 -32.3 64 -41 -41 опасность
обморожения
979.8 974.4
09 19.05 ЮЗ 6 50 км ясно -29.0 -33.1 68 -42 -42 опасность
обморожения
978.6 973.2
12 19.05 ЮЗ 6 50 км 1/0
[Cs]
-31.8 -35.2 72 -46 -46 опасность
обморожения
978.3 972.9 -32.5 -23.6
15 19.05 ЮЗ 4 50 км ясно -33.4 -36.8 71 -46 -46 опасность
обморожения
978.7 973.4
18 19.05 Ю 4 50 км ясно -32.6 -36.2 70 -44 -44 опасность
обморожения
979.4 974.0
21 19.05 ЮЗ 5 50 км 1/1 1500 м
[St]
-32.2 -35.9 69 -45 -45 опасность
обморожения
979.9 974.5
00 20.05 ЮЗ 3 50 км ясно -28.6 -31.6 75 -37 -37 опасность
обморожения
980.2 974.8 -33.8 -26.8
03 20.05 СВ 1 н/о н/о -24.4 -29.4 63 -25 -25 981.3 976.0
06 20.05 В 5 н/о н/о -30.4 -33.2 76 -43 -43 опасность
обморожения
982.6 977.2
09 20.05 В 5 50 км ледяные иглы 3/0
[Ci fib]
-27.8 -31.6 70 -40 -40 опасность
обморожения
984.8 979.4
12 20.05 В 5 50 км 9/0
[Ac As Cs]
-30.3 -34.1 69 -43 -43 опасность
обморожения
987.0 981.7 -32.5 -22.9
15 20.05 ЮВ 4 50 км 10/0 2000 м
[Ac As]
-26.5 -30.2 71 -36 -36 опасность
обморожения
988.2 982.8
18 20.05 ЮВ 3 50 км 10/10 1500 м
[Sc]
-24.8 -28.6 71 -34 -34 опасность
обморожения
988.7 983.4
21 20.05 ЮВ 2 20 км 10/10 1000 м
[St]
-24.0 -27.6 72 -29 -29 988.3 982.9
00 21.05 В 3 50 км 1/1 1000 м
[Sc]
-27.5 -30.4 76 -37 -37 опасность
обморожения
987.2 981.8 -31.2 -23.9
03 21.05 В 6 н/о н/о -27.0 -31.2 67 -39 -39 опасность
обморожения
985.7 980.3
06 21.05 В 6 н/о н/о -20.9 -24.2 75 -32 -32 опасность
обморожения
985.4 980.1
09 21.05 В 8 2000 м слабый снег {метель} туман 10/10 600 м
[Frnb]
-22.1 -26.0 71 -35 -35 опасность
обморожения
985.7 980.3
12 21.05 В 7 50 км позёмок {снег, метель} 4/4 1000 м
[Sc]
-23.1 -28.0 64 -36 -36 опасность
обморожения
985.1 979.7 -28.8 -20.5
15 21.05 В 7 50 км позёмок {метель} 3/0
[Cs]
-25.2 -30.2 63 -38 -38 опасность
обморожения
984.2 978.8
18 21.05 В 7 50 км позёмок {метель} 3/1 1000 м
[St Ci fib]
-24.7 -29.6 64 -37 -37 опасность
обморожения
982.1 976.7
21 21.05 В 8 20 км позёмок {метель} 4/0
[Ci fib]
-24.2 -29.3 63 -38 -38 опасность
обморожения
980.3 974.9
00 22.05 В 7 50 км позёмок {метель} 4/3 300 м
[St Ci fib]
-24.5 -29.8 61 -38 -38 опасность
обморожения
978.6 973.2 -25.6 -22.6
03 22.05 В 7 н/о н/о -21.8 -27.5 60 -34 -34 опасность
обморожения
977.7 972.3
06 22.05 ЮВ 5 н/о н/о -25.9 -31.5 59 -37 -37 опасность
обморожения
977.9 972.5
09 22.05 В 5 50 км 4/0
[Cc]
-27.5 -32.5 62 -40 -40 опасность
обморожения
979.9 974.5
12 22.05 ЮВ 5 50 км позёмок {метель} 9/9 1000 м
[St]
-24.7 -29.6 64 -35 -35 опасность
обморожения
982.1 976.8 -28.1 -21.4
15 22.05 В 4 50 км {метель} 6/1 1000 м
[St Cs]
-24.5 -29.3 64 -35 -35 опасность
обморожения
985.4 980.0
18 22.05 ЮВ 4 50 км {метель} 9/9 1000 м
[St]
-27.5 -32.1 65 -38 -38 опасность
обморожения
989.4 984.0
21 22.05 ЮВ 4 20 км 9/8 1000 м
[St Ci fib]
-27.3 -31.9 65 -37 -37 опасность
обморожения
992.8 987.4
00 23.05 Ю 4 50 км 8/0
[As trans]
-28.9 -33.4 65 -39 -39 опасность
обморожения
995.5 990.2 -29.1 -23.2
03 23.05 ЮВ 4 н/о н/о -31.4 -35.7 66 -43 -43 опасность
обморожения
997.2 991.9
06 23.05 В 7 н/о н/о -21.1 -26.1 64 -33 -33 опасность
обморожения
998.9 993.5
09 23.05 В 10 1000 м снег {метель} туман 10/10 600 м
[Frnb]
-18.9 -22.0 76 -32 -32 опасность
обморожения
999.1 993.7
12 23.05 В 13 200 м метель {снег} 10/10 1000 м
[St]
-16.7 -19.6 78 -31 -31 опасность
обморожения
999.5 994.1 -31.8 -16.6
15 23.05 В 14 200 м метель 10/10 1500 м
[St]
-16.2 -19.7 74 -30 -30 999.2 993.9
18 23.05 В 15 1000 м сильный позёмок {метель} 10/10 1500 м
[St]
-15.5 -20.5 65 -30 -30 997.2 991.8
21 23.05 В 16 1000 м сильный позёмок {метель} 10/10 1500 м
[St]
-15.8 -22.6 56 -31 -31 опасность
обморожения
996.3 990.9
00 24.05 В 19 2000 м сильный позёмок {метель} 10/10 1500 м
[Frnb]
-17.8 -22.3 68 -34 -34 опасность
обморожения
994.3 988.9 -18.2 -15.2
03 24.05 В 18 н/о н/о -15.2 -19.3 71 -30 -30 992.3 986.9
06 24.05 В 19 н/о н/о -14.9 -18.3 75 -30 -30 991.3 985.9
09 24.05 В 19 4000 м позёмок {метель} 10/10 1500 м
[St]
-14.4 -17.2 79 -29 -29 990.0 984.6
12 24.05 В 21 1000 м сильный позёмок {метель} 10/0
[As op]
-14.5 -16.8 83 -30 -30 987.7 982.3 -17.7 -14.0
15 24.05 В 22 <50 м сильная метель 10/10 100 м
[St]
-14.6 -16.4 86 -30 -30 985.6 980.2
18 24.05 В 21 <50 м слабый снег {метель} туман 10/10 100 м
[Frnb]
-12.8 -14.3 88 -28 -28 984.4 979.0
21 24.05 В 23 <50 м слабый снег {метель} туман 10/10 100 м
[Frnb]
-14.2 -15.8 88 -30 -30 983.3 977.9
00 25.05 В 26 <50 м слабый снег {метель} туман 10/10 200 м
[Frnb]
-12.9 -14.4 88 -29 -29 980.9 975.5 -14.7 -12.7
03 25.05 В 27 н/о н/о -12.8 -14.3 88 -29 -29 979.6 974.2
06 25.05 В 28 н/о н/о -12.1 -13.5 89 -28 -28 978.7 973.3
09 25.05 В 29 <50 м сильная метель 10/10 100 м
[Frnb]
-12.6 -14.0 89 -29 -29 978.8 973.4
12 25.05 В 25 <50 м сильная метель 10/10 300 м
[Frnb]
-12.3 -13.7 89 -28 -28 979.8 974.4 -13.3 -12.0
15 25.05 В 25 <50 м снег {метель} туман 10/10 300 м
[Frnb]
-12.2 -13.6 89 -28 -28 980.2 974.8
18 25.05 В 26 <50 м снег {метель} туман 10/10 300 м
[Frnb]
-12.3 -13.7 89 -28 -28 980.5 975.1
21 25.05 В 25 <50 м слабый снег {метель} туман 10/10 300 м
[Frnb]
-12.5 -14.0 89 -28 -28 980.7 975.3
00 26.05 В 22 <50 м снег {метель} туман 10/10 300 м
[Frnb]
-12.1 -13.4 90 -27 -27 981.2 975.9 -12.6 -11.9

 

Местоположение метеостанции Neumayer (Антарктида): широта -70.66 долгота -8.25 высота над уровнем моря 50 м.

В архиве по умолчанию представлена погода в Neumayer за последнюю неделю. Архивные данные за месяц целиком и за предыдущие месяцы, начиная с января 2011 года, Вы можете получить, выбрав интересующий диапазон дат из раскрывающегося списка и нажав кнопку "Ввод!".

Внимание! Время в таблицах - всемирное. Для получения местного времени необходимо прибавить поправку, которая в Neumayer равна 0 ч.

Смотрите также архив погоды в соседних городах и на ближайших метеорологических станциях:

Погода в S.a.n.a.e. aws (Антарктида) (227 км)
Погода в Nordenskiold Base (Антарктида) (320 км)
Погода в Troll (Антарктида) (406 км)
Погода в Kohnen Ep9 (Антарктида) (552 км)
Погода в Maitri (Антарктида) (732 км)
Погода в Novolazarevskaja (Антарктида) (734 км)
Погода в Halley (Антарктида) (797 км)
Погода в Base Belgrano Ii (Антарктида) (1110 км)
Погода в Relay Station (Антарктида) (1713 км)
Погода в Butler Island (Антарктида) (1789 км)

Пояснения к столбцам:

Ветер - указаны скорость ветра в м/с - средняя за 10 мин, порывы в срок и между сроками (в фигурных скобках) и направление, откуда дует ветер: С - северный, СВ - северо-восточный, В - восточный, ЮВ - юго-восточный, Ю - южный, ЮЗ - юго-западный, З - западный, СЗ - северо-западный.
Видимость - горизонтальная дальность видимости в метрах или километрах. При видимости от 1 до 10 км при отсутствии осадков обычно наблюдается дымка, при ухудшении видимости до 1 км и менее - туман. В сухую погоду видимость может ухудшаться дымом, пылью или мглою.
Явления - указаны атмосферные явления, наблюдавшиеся в срок или в последний час перед сроком; фигурными скобками обозначены явления, наблюдавшиеся между сроками (за 1-3 часа до срока); квадратными скобками обозначены град или гололедные отложения с указанием их диаметра в мм.
Облачность - указаны через наклонную черту общая и нижняя облачность в баллах и высота нижней границы облаков в метрах; квадратными скобками обозначены формы облаков: Ci - перистые, Cs - перисто-слоистые, Cc - перисто-кучевые, Ac - высококучевые, As - высокослоистые, Sc - слоисто-кучевые, Ns - слоисто-дождевые, Cu - кучевые, Cb - кучево-дождевые. Подробнее классификацию облаков см. в Атласе облаков (PDF).
T - Температура воздуха - температура, измеренная на высоте 2 м над землей.
Td - Температура точки росы - температура, при понижении до которой содержащийся в воздухе водяной пар достигнет насыщения.
f - Относительная влажность воздуха - влажноcть воздуха, измеренная на высоте 2 м над землей.
Te - Эффективная температура - температура, которую ощущает одетый по сезону человек в тени. Характеристика душности погоды. При расчете учитывается влияние влажности воздуха и скорости ветра на теплоощущения человека.
Tes - Эффективная температура на солнце - температура, которую ощущает человек, с поправкой на солнечный нагрев. Характеристика знойности погоды. Зависит от высоты солнца над горизонтом, облачности и скорости ветра. Ночью, в пасмурную погоду, а также при ветре 12 м/с и более поправка равна нулю.
P - Атмосферное давление - приведенное к уровню моря атмосферное давление.
Po - Атмосферное давление - измеренное на уровне метеостанции атмосферное давление.
Tmin - Минимальная температура - минимум температуры воздуха на высоте 2 м над землей.
Tmax - Максимальная температура - максимум температуры воздуха на высоте 2 м над землей.
R - Количество осадков - Количество выпавших осадков за период времени, мм. При наведении курсора мыши на число - период времени, за который выпало указанное количество осадков.
R24 - Количество осадков - Количество выпавших осадков за 24 часа, мм.
S - Снежный покров - Высота снежного покрова, см. При наведении курсора мыши на число - состояние снежного покрова и степень покрытия местности в баллах.